Current weather by "City, St" or "zip code"  
 

Current Conditions: Clinton, MO, MO

A Few Clouds


55.0 F

Last Updated on Oct 21 2021, 11:55 am CDT
Humidity: 63%
Wind Speed: 5.8 G 11.5 mph
Barometer 30.18 in
Dewpoint: 42.8 F
Visibility: 10.00 mi
Precip: --
Heat Index: NA
Wind Chill: 54 F
Current conditions at:

Clinton, MO, MO (KGLY)

Lat: 38.3566 Lon: 93.6842

Local Radar Image active severe weather and emergency alerts image image weather storm and storm spotter reports image weather observation monitoring service image
Local
Radar
Active
Alerts
Storm Reports Obs
Monitoring

Sign-up For Email & Text Message Weather Alert Notification Services



Advertise Here

Observation History for Clinton, MO, MO


Time Wind
(mph)
Vis
(mi)
Weather Precip (in) Temperature (F) Relative
Humidity
Wind
Chill
(F)
Heat
Index
(F)
Pressure
Air Dwpt altimeter
(in)
sea level
(mb)
Rmks
11:55 am CDT 5.8 G 11.5 10.00 A Few Clouds -- 55.0 42.8 63% 54 NA 30.18 M
10:55 am CDT NW 6.9 10.00 NULL -- 54.0 41.0 63% 52 NA 30.18 M
9:55 am CDT NW 10.4 10.00 NULL -- 50.0 39.2 67% 46 NA 30.17 M
8:55 am CDT W 9.2 10.00 Fair -- 48.0 39.2 71% 44 NA 30.16 M
7:55 am CDT 6.9 10.00 Fair -- 45.0 39.2 81% 41 NA 30.13 M
6:55 am CDT W 6.9 10.00 Fair -- 45.0 39.2 81% 41 NA 30.12 M
5:55 am CDT W 6.9 10.00 Fair -- 45.0 41.0 87% 41 NA 30.10 M
4:55 am CDT W 5.8 10.00 Fair -- 45.0 41.0 87% 42 NA 30.09 M
3:55 am CDT W 5.8 10.00 Fair -- 46.0 41.0 82% 43 NA 30.09 M
2:55 am CDT W 5.8 10.00 Fair -- 46.0 42.8 87% 43 NA 30.08 M
1:55 am CDT W 5.8 10.00 Fair -- 48.0 42.8 82% 45 NA 30.08 M
12:55 am CDT W 5.8 10.00 Fair -- 50.0 42.8 76% 48 NA 30.08 M
11:55 pm CDT NW 5.8 10.00 Fair -- 54.0 44.6 72% 53 NA 30.07 M
10:55 pm CDT NW 5.8 10.00 Fair -- 57.0 44.6 63% 56 NA 30.06 M
9:55 pm CDT W 8.1 10.00 Fair -- 59.0 46.4 63% 58 NA 30.05 M
8:55 pm CDT W 6.9 10.00 Fair -- 61.0 48.2 63% 60 NA 30.03 M
7:55 pm CDT W 6.9 10.00 Fair -- 63.0 50.0 64% 63 NA 30.01 M
6:55 pm CDT SW 4.6 10.00 Fair -- 64.0 57.2 78% NA NA 30.00 M
5:55 pm CDT S 6.9 10.00 Fair -- 70.0 57.2 64% NA NA 29.98 M
4:55 pm CDT SW 10.4 10.00 Partly Cloudy -- 72.0 59.0 65% NA NA 29.99 M
3:55 pm CDT SW 10.4 G 17.3 10.00 A Few Clouds -- 72.0 60.8 69% NA NA 29.99 M
2:55 pm CDT SW 8.1 G 15.0 10.00 Overcast -- 70.0 60.8 73% NA NA 29.99 M
1:55 pm CDT SW 9.2 G 17.3 9.00 Overcast -- 70.0 60.8 73% NA NA 30.00 M
12:55 pm CDT SW 11.5 G 18.4 10.00 Overcast -- 70.0 60.8 73% NA NA 30.02 M

Regional Weather Observation


Clinton, MO, MO (KGLY)

A Few Clouds
55.0 F

Whiteman Air Force Base, MO (KSZL)

Partly Cloudy
54.0 F

Warsaw Municipal Airport, MO (KRAW)

Overcast
53.0 F

Harrisonville Lawrence Smith Memorial Airport, MO (KLRY)

Fair
55.0 F

Sedalia, Sedalia Memorial Airport, MO (KDMO)

Overcast
52.0 F

Lees Summit, Lees Summit Municipal Airport, MO (KLXT)

Fair
53.0 F

Advertise Here


Advertise Here